Location: Newark
(39.0622°N, 106.5590°E)
Time: 08:30:32
(UTC+00:00)

Transit 4A - All Passes

Search period start: 18 January 2020 00:00
Search period end: 28 January 2020 00:00
Orbit: 871 x 973 km, 66.8° (Epoch: 17 January)

Date Brightness Start Highest point End Pass type
(mag) Time Alt. Az. Time Alt. Az. Time Alt. Az.
18 Jan - 01:36:47 10° SW 01:42:34 45° NW 01:48:14 10° NNE daylight
18 Jan - 08:54:42 10° N 08:59:34 27° NE 09:04:26 10° ESE daylight
18 Jan - 10:40:33 10° NW 10:46:08 49° WSW 10:51:45 10° S visible
18 Jan - 23:59:55 10° S 00:05:37 43° ESE 00:11:13 10° NE daylight
19 Jan - 01:46:46 10° WSW 01:52:03 31° NW 01:57:17 10° N daylight
19 Jan - 09:03:42 10° NNW 09:09:06 38° NE 09:14:31 10° ESE daylight
19 Jan - 10:50:13 10° NW 10:55:18 32° WSW 11:00:26 10° S visible
20 Jan - 00:08:49 10° SSW 00:14:51 66° ESE 00:20:44 10° NE daylight
20 Jan - 01:57:04 10° W 02:01:39 22° NW 02:06:12 10° N daylight
20 Jan - 07:29:26 10° NNE 07:30:53 11° NE 07:32:21 10° NE daylight
20 Jan - 09:12:49 10° NNW 09:18:34 56° ENE 09:24:18 10° SE daylight
20 Jan - 11:00:13 10° WNW 11:04:24 21° WSW 11:08:38 10° SSW visible
20 Jan - 22:35:46 10° SE 22:38:34 14° ESE 22:41:21 10° ENE visible
21 Jan - 00:18:03 10° SSW 00:24:09 84° WNW 00:30:07 10° NNE daylight
21 Jan - 02:07:49 10° W 02:11:21 16° NW 02:14:53 10° N daylight
21 Jan - 07:37:21 10° N 07:40:42 15° NE 07:44:02 10° ENE daylight
21 Jan - 09:22:05 10° NNW 09:27:56 84° ENE 09:33:48 10° SSE daylight
21 Jan - 11:10:59 10° WNW 11:13:27 13° WSW 11:15:56 10° SW visible
21 Jan - 22:43:10 10° SSE 22:47:37 22° ESE 22:52:01 10° ENE visible
22 Jan - 00:27:33 10° SW 00:33:31 57° WNW 00:39:21 10° NNE daylight
22 Jan - 02:19:22 10° NW 02:21:09 11° NW 02:22:57 10° NNW daylight
22 Jan - 07:46:01 10° N 07:50:24 21° NE 07:54:47 10° E daylight
22 Jan - 09:31:27 10° NW 09:37:13 65° WSW 09:43:00 10° SSE daylight
22 Jan - 22:51:24 10° S 22:56:44 33° ESE 23:01:59 10° NE visible
23 Jan - 00:37:21 10° WSW 00:42:58 39° NW 00:48:29 10° NNE daylight
23 Jan - 07:54:55 10° N 08:00:00 30° NE 08:05:06 10° ESE daylight
23 Jan - 09:41:00 10° NW 09:46:26 42° WSW 09:51:55 10° S daylight
23 Jan - 23:00:05 10° S 23:05:56 50° ESE 23:11:39 10° NE visible
24 Jan - 00:47:27 10° WSW 00:52:30 27° NW 00:57:30 10° N daylight
24 Jan - 08:03:58 10° NNW 08:09:31 44° NE 08:15:04 10° SE daylight
24 Jan - 09:50:45 10° NW 09:55:34 27° WSW 10:00:27 10° SSW daylight
24 Jan - 23:09:08 10° SSW 23:15:11 76° ESE 23:21:07 10° NNE visible
25 Jan - 00:57:53 10° W 01:02:08 20° NW 01:06:20 10° N daylight
25 Jan - 06:29:05 10° NNE 06:31:25 12° NE 06:33:46 10° ENE daylight
25 Jan - 08:13:08 10° NNW 08:18:56 65° ENE 08:24:45 10° SE daylight
25 Jan - 10:00:56 10° WNW 10:04:39 18° WSW 10:08:25 10° SW daylight
25 Jan - 21:35:17 10° SE 21:38:49 16° ESE 21:42:18 10° ENE visible
25 Jan - 23:18:27 10° SW 23:24:30 73° WNW 23:30:26 10° NNE visible
26 Jan - 01:08:51 10° WNW 01:11:52 14° NW 01:14:53 10° N daylight
26 Jan - 06:37:25 10° N 06:41:12 17° NE 06:44:58 10° E daylight
26 Jan - 08:22:25 10° NNW 08:28:16 85° WSW 08:34:09 10° SSE daylight
26 Jan - 10:12:36 10° W 10:13:41 10° W 10:14:45 10° WSW daylight
26 Jan - 21:43:04 10° SSE 21:47:54 25° ESE 21:52:38 10° NE visible
26 Jan - 23:28:04 10° SW 23:33:54 49° WNW 23:39:39 10° NNE visible
27 Jan - 06:46:10 10° N 06:50:52 24° NE 06:55:32 10° ESE daylight
27 Jan - 08:31:50 10° NW 08:37:32 56° WSW 08:43:15 10° S daylight
27 Jan - 21:51:29 10° S 21:57:02 38° ESE 22:02:28 10° NE visible
27 Jan - 23:37:57 10° WSW 23:43:23 34° NW 23:48:43 10° NNE visible
